Location: Wyoming Skies Observatory
(43.6910°N, 108.3105°W)
Time: 22:27:58
(UTC-07:00)

Daily predictions for brighter satellites

Satellite Brightness Start Highest point End
(mag) Time Altitude Azimuth Time Altitude Azimuth Time Altitude Azimuth
Cosmos 1954 Rocket 4.2 18:19:12 10° S 18:24:10 48° ESE 18:29:12 10° NNE
USA 215 4.2 18:18:08 10° NE 18:24:15 44° NNW 18:30:21 10° W
Cosmos 1833 4.4 18:20:09 10° S 18:25:37 50° ESE 18:31:04 10° NE
Cosmos 1461 4.1 18:22:39 10° NW 18:26:30 45° WSW 18:30:27 10° SSE
SL-16 R/B 3.1 18:25:17 10° NNW 18:30:49 55° WSW 18:36:19 10° S
Cosmos 2333 Rocket 3.7 18:27:04 10° N 18:30:52 18° NE 18:34:39 10° E
Meteor 1-28 Rocket 3.3 18:36:02 10° N 18:39:51 82° WNW 18:43:40 10° SSW
Cosmos 1300 Rocket 3.7 18:40:00 10° SSE 18:44:16 50° E 18:48:35 10° NNE
Genesis I 3.6 18:41:01 10° NNW 18:44:50 45° NE 18:48:37 10° SE
Cosmos 2322 Rocket 3.8 18:41:09 10° NW 18:46:21 39° WSW 18:51:32 10° S
COSMO-SKYMED 1 3.5 18:46:10 10° N 18:50:25 53° WNW 18:54:38 10° SSW
FENGYUN 3A 3.8 18:45:47 10° SE 18:50:59 50° ENE 18:56:13 10° N
Resurs 01 Rocket 2.2 18:47:20 10° SE 18:51:22 36° ENE 18:55:25 10° N
Helios 1A 4.3 18:50:39 13° ESE 18:53:05 20° ENE 18:56:10 10° NNE
FengYun 1-2 T 4.3 18:49:34 10° SE 18:54:52 54° ENE 19:00:14 10° N
SJ-6B 2.7 18:51:24 10° SSE 18:55:23 77° ENE 18:59:19 10° N
NOAA 12 4.3 18:50:14 10° SSE 18:55:34 82° WSW 19:00:56 10° NNW
Cosmos 1023 Rocket 4.4 18:51:26 10° S 18:56:30 72° ESE 19:01:38 10° NNE
Helios 1B rocket 3.8 18:56:55 10° NE 18:59:49 18° E 19:02:41 10° SE
GEOS 3 Rocket 4.2 18:57:13 10° NE 19:02:05 38° ESE 19:06:57 10° S
Meteor 1-19 Rocket 4.2 18:57:28 10° N 19:03:11 83° E 19:08:58 10° SSE
Cosmos 2322 3.8 18:58:59 10° NNW 19:04:44 82° WSW 19:10:26 10° SSE
Cosmos 1633 2.7 19:01:07 10° SSW 19:04:48 78° W 19:08:30 10° N
Resurs 1-3 3.9 19:02:25 10° SE 19:06:34 43° ENE 19:10:44 10° N
TSX-5 4.4 19:04:18 10° SW 19:07:19 43° WNW 19:10:32 10° NNE
Cosmos 405 Rocket 4.0 19:05:45 10° NNE 19:09:02 23° ENE 19:09:28 23° E
Cosmos 1741 Rocket 4.0 19:04:12 10° S 19:09:18 57° ESE 19:14:25 10° NNE
Cosmos 2181 Rocket 4.1 19:03:55 10° N 19:10:12 84° W 19:16:33 10° S
CZ-2D R/B 3.8 19:09:07 15° SE 19:11:46 36° ENE 19:15:17 10° N
Abrixas rocket 3.2 19:10:23 10° SSW 19:13:25 31° SE 19:14:08 28° ESE
Gbstr 26 Del rocket 2.5 19:09:55 10° SW 19:13:44 78° SE 19:15:48 25° ENE
ALOS 2.2 19:09:46 10° SSE 19:14:26 83° ENE 19:19:08 10° N
H-2A R/B 2.8 19:11:16 10° SSE 19:14:52 52° ENE 19:18:32 10° N
USA 186 3.9 19:18:27 13° NNE 19:18:27 13° NNE 19:18:57 10° NNE
BREEZE-M DEB (TANK) 2.1 19:14:11 10° WNW 19:16:39 84° SSW 19:19:59 20° ESE
FREGAT/IRIS 4.0 19:15:25 10° S 19:18:23 43° W 19:21:21 10° NNW
BREEZE-M DEB (TANK) 2.8 19:17:01 10° SW 19:20:32 35° SSE 19:20:48 34° SE
Okean 1 Rocket 3.1 19:16:43 10° S 19:21:12 85° W 19:25:43 10° N
COSMOS 2428 2.6 19:15:38 10° NNW 19:21:21 74° ENE 19:27:01 10° SSE
Cosmos 2237 4.2 19:15:41 10° NNW 19:21:28 89° WSW 19:27:11 10° SSE
Cosmos 2333 4.2 19:15:50 10° NNW 19:21:33 66° ENE 19:26:54 12° SE
Cosmos 2237 Rocket 3.1 19:17:23 10° N 19:22:18 29° NE 19:23:52 25° E
Cosmos 1536 2.7 19:19:39 10° S 19:23:38 85° E 19:27:38 10° N
Cosmos 2074 Rocket 4.0 19:18:08 10° S 19:24:16 64° E 19:30:30 10° NNE
Cosmos 1892 Rocket 4.1 19:20:26 10° N 19:24:26 34° ENE 19:25:08 32° E
Cosmos 1570 Rocket 4.0 19:19:32 10° NNW 19:24:48 87° WSW 19:30:02 10° SSE
Meteor 2-4 Rocket 3.6 19:19:24 10° N 19:25:00 90° ENE 19:30:24 10° S
Meteor 1-23 Rocket 4.2 19:19:42 10° N 19:25:32 75° E 19:31:16 10° SSE
Cosmos 1140 Rocket 4.0 19:22:31 10° SSW 19:27:35 62° WNW 19:32:43 10° NNE
Cosmos 2184 Rocket 3.9 19:22:16 10° S 19:28:29 66° E 19:34:41 10° NNE
Cosmos 614 Rocket 4.1 19:27:47 10° SSW 19:32:51 72° WNW 19:37:56 10° NNE
Cosmos 1025 Rocket 2.9 19:30:37 10° N 19:35:01 85° ENE 19:39:25 10° S
Cosmos 2360 Rocket 3.5 19:31:12 10° NW 19:36:27 40° WSW 19:41:41 10° S
Cosmos 2219 Rocket 2.2 19:32:14 10° NNW 19:37:46 57° ENE 19:40:18 31° SE
Cosmos 468 Rocket 4.2 19:35:52 10° N 19:40:59 51° ENE 19:42:31 38° ESE
Cosmos 2219 3.1 19:35:48 10° SSW 19:41:34 87° ESE 19:47:21 10° NNE
Spot 2 Rocket 3.7 19:40:08 10° S 19:45:10 70° WSW 19:50:15 10° NNW
Nadezhda 3 Rocket 4.1 19:40:11 10° N 19:46:09 49° ENE 19:48:47 31° SE
Cosmos 2227 Rocket 3.8 19:41:36 10° SSE 19:43:12 18° SSE 19:43:12 18° SSE
Meteor 2-13 Rocket 4.3 19:46:30 10° S 19:52:30 68° E 19:58:33 10° NNE
Cosmos 2341 Rocket 4.3 19:52:56 40° E 19:53:28 41° E 19:59:24 10° NNE
USA 229 DEB 3.8 19:47:57 10° NW 19:55:07 85° SW 19:59:39 25° SSE
USA 229 3.8 19:48:03 10° NW 19:55:13 86° SW 19:59:42 26° SSE
SL-16 R/B 3.5 19:51:56 10° N 19:55:51 24° NE 19:55:51 24° NE
Cosmos 2285 Rocket 4.0 19:50:23 10° NNW 19:56:51 84° WSW 20:02:15 15° SSE
Cosmos 2154 Rocket 4.0 19:51:27 10° S 19:57:39 59° E 20:03:52 10° NNE
Cosmos 1814 Rocket 4.0 19:54:44 10° NNW 19:59:49 55° ENE 19:59:53 55° ENE
Envisat 3.0 20:01:36 56° ENE 20:01:36 56° ENE 20:06:32 10° N
ERS-1 Rocket 4.1 20:05:19 29° NNE 20:05:19 29° NNE 20:08:17 10° N
NOSS 0 Rocket 3.8 20:01:15 10° NNW 20:07:27 80° ENE 20:09:15 49° SE
NOSS 3-1 (A) 4.3 20:00:28 10° NNW 20:07:42 51° NE 20:09:34 43° E
ATLAS 2AS CENTAUR R/B 4.2 20:06:08 10° NNW 20:12:44 26° NNE 20:14:30 24° NE
Cosmos 2333 Rocket 2.1 20:10:10 10° NNW 20:15:58 90° NE 20:17:03 61° SSE
Cosmos 1980 3.5 20:15:38 10° NNW 20:21:19 81° ENE 20:21:29 80° E
NOSS 3-1 (C) 3.9 20:19:18 10° NW 20:26:50 75° NE 20:28:31 58° ESE
Resurs 01 Rocket 4.0 20:24:30 10° SW 20:27:56 22° W 20:31:24 10° NW
Helios 1A 4.3 20:27:18 31° SW 20:28:25 37° W 20:32:18 10° NNW
H-2A R/B 4.5 20:33:45 11° NNE 20:33:45 11° NNE 20:34:04 10° NNE
Cosmos 962 Rocket 4.3 20:31:39 76° NE 20:31:39 76° NE 20:37:26 10° N
Helios 1B rocket 3.7 20:31:24 10° N 20:35:17 40° WNW 20:39:09 10° SW
Meteor 1-12 Rocket 4.4 20:40:32 10° SSW 20:46:30 73° W 20:52:27 10° N
Cosmos 2237 Rocket 3.1 21:01:07 10° NW 21:05:45 45° W 21:05:45 45° W
Cosmos 2219 Rocket 4.2 21:17:07 10° NW 21:21:14 22° W 21:22:05 21° WSW
SL-16 R/B 4.1 21:35:29 10° NNW 21:37:46 25° NW 21:37:46 25° NW
ATLAS 2AS CENTAUR R/B 4.1 21:57:10 10° NW 22:01:57 38° NNW 22:01:57 38° NNW
